Radiation Dose at Monitoring Post of Fukushima Daini Nuclear Power Station
Date,Time,MP-1(microSv/h),MP-2(microSv/h),MP-3(microSv/h),MP-4(microSv/h),MP-5(microSv/h),MP-6(microSv/h),MP-7(microSv/h),Wind Direction,Wind Velocity(m/s),Rain
2017/06/06,00:00,0.375,0.226,0.388,0.358,0.326,0.187,0.120,north,2.8,No
2017/06/06,00:10,0.374,0.227,0.390,0.359,0.327,0.186,0.119,north,1.2,No
2017/06/06,00:20,0.377,0.227,0.388,0.359,0.324,0.187,0.119,north,2.8,No
2017/06/06,00:30,0.375,0.226,0.388,0.358,0.325,0.187,0.120,north,3.3,No
2017/06/06,00:40,0.376,0.226,0.388,0.358,0.326,0.187,0.120,north,3.3,No
2017/06/06,00:50,0.377,0.227,0.388,0.358,0.327,0.187,0.120,north,2.8,No
2017/06/06,01:00,0.374,0.226,0.390,0.358,0.324,0.186,0.119,north,2.5,No
2017/06/06,01:10,0.376,0.225,0.387,0.358,0.327,0.186,0.120,north,2.1,No
2017/06/06,01:20,0.376,0.226,0.388,0.357,0.325,0.187,0.120,north,2.1,No
2017/06/06,01:30,0.373,0.226,0.388,0.358,0.326,0.187,0.119,north,2.2,No
2017/06/06,01:40,0.377,0.226,0.386,0.357,0.327,0.186,0.120,north,1.5,No
2017/06/06,01:50,0.374,0.227,0.387,0.358,0.325,0.187,0.119,north,1.6,No
2017/06/06,02:00,0.375,0.225,0.389,0.359,0.326,0.186,0.120,north,1.6,No
2017/06/06,02:10,0.376,0.226,0.388,0.359,0.325,0.186,0.120,north-northeast,1.6,No
2017/06/06,02:20,0.375,0.226,0.388,0.357,0.324,0.187,0.119,north-northeast,1.9,No
2017/06/06,02:30,0.376,0.225,0.387,0.358,0.325,0.186,0.120,north-northeast,2.0,No
2017/06/06,02:40,0.376,0.226,0.386,0.356,0.326,0.187,0.120,north-northeast,2.1,No
2017/06/06,02:50,0.374,0.226,0.388,0.357,0.325,0.186,0.119,north,1.5,No
2017/06/06,03:00,0.375,0.225,0.388,0.359,0.325,0.186,0.121,north-northeast,1.9,No
2017/06/06,03:10,0.375,0.225,0.387,0.359,0.326,0.187,0.119,north-northeast,2.0,No
2017/06/06,03:20,0.373,0.227,0.387,0.358,0.324,0.187,0.121,north-northeast,1.8,No
2017/06/06,03:30,0.375,0.226,0.389,0.358,0.327,0.187,0.119,north,2.1,No
2017/06/06,03:40,0.374,0.226,0.389,0.356,0.326,0.186,0.120,north,2.2,No
2017/06/06,03:50,0.374,0.227,0.389,0.357,0.325,0.186,0.119,north,2.4,No
2017/06/06,04:00,0.377,0.226,0.388,0.360,0.328,0.186,0.120,north,2.8,No
2017/06/06,04:10,0.374,0.225,0.389,0.358,0.324,0.188,0.120,north,3.0,No
2017/06/06,04:20,0.374,0.226,0.389,0.358,0.325,0.187,0.121,north,2.7,No
2017/06/06,04:30,0.375,0.225,0.388,0.359,0.327,0.187,0.120,north,3.2,No
2017/06/06,04:40,0.374,0.225,0.389,0.356,0.324,0.187,0.119,north,3.2,No
2017/06/06,04:50,0.376,0.227,0.388,0.357,0.324,0.187,0.119,north,3.3,No
2017/06/06,05:00,0.376,0.224,0.386,0.357,0.326,0.185,0.119,north,2.5,No
2017/06/06,05:10,0.375,0.226,0.387,0.357,0.324,0.187,0.119,north,1.9,No
2017/06/06,05:20,0.374,0.224,0.388,0.358,0.325,0.187,0.119,north,1.8,No
2017/06/06,05:30,0.375,0.224,0.387,0.356,0.323,0.187,0.119,north-northwest,1.8,No
2017/06/06,05:40,0.376,0.224,0.389,0.358,0.325,0.187,0.118,north-northwest,2.2,No
2017/06/06,05:50,0.374,0.225,0.387,0.356,0.323,0.186,0.119,northwest,1.8,No
2017/06/06,06:00,0.375,0.225,0.387,0.357,0.324,0.187,0.119,northwest,1.7,No
2017/06/06,06:10,0.375,0.226,0.388,0.359,0.322,0.186,0.118,northwest,1.3,No
2017/06/06,06:20,0.374,0.224,0.385,0.356,0.325,0.187,0.120,west-northwest,1.4,No
2017/06/06,06:30,0.373,0.226,0.389,0.358,0.324,0.186,0.119,northwest,1.6,No
2017/06/06,06:40,0.375,0.224,0.386,0.355,0.326,0.187,0.118,northwest,0.8,No
2017/06/06,06:50,0.375,0.226,0.388,0.359,0.325,0.186,0.120,north-northwest,0.8,No
2017/06/06,07:00,0.374,0.224,0.385,0.356,0.326,0.186,0.119,east-southeast,0.6,No
2017/06/06,07:10,0.374,0.223,0.387,0.356,0.325,0.186,0.118,northeast,1.6,No
2017/06/06,07:20,0.372,0.224,0.383,0.354,0.326,0.186,0.120,east,1.8,No
2017/06/06,07:30,0.376,0.225,0.385,0.357,0.324,0.187,0.119,east,1.5,No
2017/06/06,07:40,0.373,0.224,0.385,0.355,0.327,0.187,0.119,east,1.6,No
2017/06/06,07:50,0.374,0.225,0.383,0.355,0.325,0.185,0.119,southeast,0.8,No
2017/06/06,08:00,0.375,0.225,0.384,0.357,0.323,0.186,0.118,east,2.2,No
2017/06/06,08:10,0.372,0.224,0.387,0.355,0.327,0.185,0.118,southeast,1.6,No
2017/06/06,08:20,0.376,0.227,0.385,0.355,0.321,0.185,0.120,southeast,2.0,No
2017/06/06,08:30,0.374,0.225,0.386,0.357,0.326,0.187,0.119,south-southeast,1.9,No
2017/06/06,08:40,0.375,0.225,0.388,0.355,0.324,0.186,0.118,southeast,2.0,No
2017/06/06,08:50,0.374,0.225,0.383,0.352,0.323,0.187,0.117,southeast,2.0,No
2017/06/06,09:00,0.371,0.226,0.387,0.357,0.325,0.186,0.117,south-southeast,2.5,No
2017/06/06,09:10,0.375,0.226,0.387,0.357,0.322,0.186,0.116,southeast,1.8,No
2017/06/06,09:20,0.374,0.226,0.385,0.355,0.326,0.187,0.117,east-southeast,2.4,No
2017/06/06,09:30,0.369,0.226,0.389,0.354,0.326,0.186,0.118,east-southeast,2.4,No
2017/06/06,09:40,0.372,0.227,0.386,0.357,0.322,0.187,0.118,east-southeast,2.6,No
2017/06/06,09:50,0.376,0.224,0.389,0.358,0.326,0.186,0.116,southeast,2.2,No
2017/06/06,10:00,0.372,0.226,0.386,0.356,0.325,0.186,0.118,east-southeast,2.7,No
2017/06/06,10:10,0.372,0.226,0.389,0.354,0.323,0.187,0.118,east-southeast,1.9,No
2017/06/06,10:20,0.374,0.224,0.387,0.357,0.326,0.187,0.118,southeast,2.5,No
2017/06/06,10:30,0.373,0.225,0.385,0.358,0.323,0.186,0.118,southeast,2.2,No
2017/06/06,10:40,0.372,0.225,0.383,0.356,0.323,0.187,0.117,southeast,2.2,No
2017/06/06,10:50,0.376,0.225,0.388,0.354,0.327,0.186,0.117,east-southeast,2.0,No
2017/06/06,11:00,0.373,0.227,0.386,0.359,0.324,0.186,0.115,east,2.5,No
2017/06/06,11:10,0.371,0.225,0.385,0.359,0.323,0.187,0.117,east-southeast,2.6,No
2017/06/06,11:20,0.376,0.224,0.385,0.356,0.327,0.187,0.116,southeast,2.5,No
2017/06/06,11:30,0.376,0.227,0.389,0.354,0.325,0.185,0.117,east-southeast,2.9,No
2017/06/06,11:40,0.370,0.225,0.386,0.358,0.322,0.188,0.119,east-southeast,2.9,No
2017/06/06,11:50,0.375,0.226,0.384,0.358,0.326,0.185,0.118,southeast,3.0,No
2017/06/06,12:00,0.377,0.226,0.384,0.356,0.325,0.186,0.119,east-southeast,2.1,No
2017/06/06,12:10,0.373,0.225,0.388,0.355,0.322,0.188,0.119,southeast,3.1,No
2017/06/06,12:20,0.373,0.226,0.387,0.359,0.327,0.186,0.118,southeast,3.0,No
2017/06/06,12:30,0.377,0.225,0.385,0.359,0.325,0.185,0.119,southeast,3.5,No
2017/06/06,12:40,0.374,0.226,0.384,0.356,0.323,0.187,0.119,east-southeast,2.5,No
2017/06/06,12:50,0.371,0.227,0.387,0.356,0.324,0.187,0.118,east-southeast,3.6,No
2017/06/06,13:00,0.376,0.226,0.388,0.361,0.326,0.186,0.118,east-southeast,3.8,No
2017/06/06,13:10,0.376,0.226,0.386,0.357,0.323,0.187,0.119,east,4.5,No
2017/06/06,13:20,0.371,0.227,0.385,0.355,0.324,0.187,0.119,east-southeast,3.9,No
2017/06/06,13:30,0.377,0.225,0.383,0.357,0.326,0.187,0.118,east,3.4,No
2017/06/06,13:40,0.377,0.227,0.383,0.360,0.326,0.187,0.119,east,3.8,No
2017/06/06,13:50,0.373,0.226,0.390,0.358,0.325,0.187,0.118,east-southeast,3.3,No
2017/06/06,14:00,0.374,0.226,0.389,0.355,0.324,0.187,0.116,east-southeast,3.6,No
2017/06/06,14:10,0.375,0.227,0.386,0.358,0.327,0.187,0.118,east-southeast,3.7,No
2017/06/06,14:20,0.373,0.228,0.385,0.360,0.325,0.186,0.120,east-southeast,3.2,No
2017/06/06,14:30,0.376,0.225,0.389,0.357,0.322,0.186,0.119,east-southeast,3.0,No
2017/06/06,14:40,0.377,0.228,0.391,0.357,0.324,0.188,0.120,southeast,3.2,No
2017/06/06,14:50,0.373,0.225,0.388,0.362,0.327,0.187,0.119,southeast,3.1,No
2017/06/06,15:00,0.377,0.228,0.384,0.359,0.326,0.187,0.119,southeast,3.1,No
2017/06/06,15:10,0.375,0.227,0.385,0.360,0.323,0.187,0.120,south-southeast,2.8,No
2017/06/06,15:20,0.375,0.226,0.391,0.361,0.323,0.187,0.120,south-southeast,3.2,No
2017/06/06,15:30,0.378,0.227,0.390,0.358,0.328,0.186,0.120,south-southeast,3.8,No
2017/06/06,15:40,0.374,0.226,0.387,0.362,0.328,0.187,0.120,south-southeast,2.9,No
2017/06/06,15:50,0.377,0.225,0.390,0.358,0.324,0.187,0.119,south,4.1,No
2017/06/06,16:00,0.374,0.227,0.391,0.363,0.324,0.187,0.120,south,5.0,No
2017/06/06,16:10,0.374,0.226,0.389,0.359,0.330,0.188,0.120,south,5.4,No
2017/06/06,16:20,0.378,0.228,0.393,0.361,0.326,0.187,0.120,south,5.6,No
2017/06/06,16:30,0.373,0.227,0.388,0.361,0.325,0.186,0.120,south,5.5,No
2017/06/06,16:40,0.374,0.228,0.391,0.359,0.323,0.188,0.120,south,5.7,No
2017/06/06,16:50,0.376,0.227,0.390,0.362,0.328,0.187,0.121,south,6.8,No
2017/06/06,17:00,0.373,0.229,0.391,0.360,0.324,0.186,0.121,south,6.7,No
2017/06/06,17:10,0.377,0.226,0.390,0.360,0.329,0.187,0.120,south,6.0,No
2017/06/06,17:20,0.374,0.228,0.392,0.359,0.328,0.187,0.121,south,5.3,No
2017/06/06,17:30,0.377,0.228,0.391,0.360,0.325,0.187,0.120,south,5.6,No
2017/06/06,17:40,0.375,0.228,0.389,0.358,0.330,0.186,0.120,south,4.8,No
2017/06/06,17:50,0.375,0.227,0.392,0.362,0.326,0.188,0.121,south,1.8,No
2017/06/06,18:00,0.376,0.229,0.389,0.359,0.329,0.187,0.121,-,CALM,No
2017/06/06,18:10,0.376,0.227,0.391,0.362,0.325,0.187,0.120,south,3.3,No
2017/06/06,18:20,0.378,0.227,0.390,0.358,0.329,0.187,0.121,south,3.2,No
2017/06/06,18:30,0.375,0.228,0.391,0.361,0.326,0.186,0.120,south,2.9,No
2017/06/06,18:40,0.377,0.227,0.390,0.359,0.328,0.187,0.121,south,4.2,No
2017/06/06,18:50,0.374,0.228,0.392,0.362,0.327,0.188,0.119,south,6.5,No
2017/06/06,19:00,0.378,0.227,0.391,0.359,0.329,0.187,0.120,south,4.5,No
2017/06/06,19:10,0.376,0.227,0.389,0.362,0.325,0.188,0.121,south-southwest,5.0,No
2017/06/06,19:20,0.377,0.228,0.392,0.359,0.327,0.187,0.121,south,5.4,No
2017/06/06,19:30,0.375,0.227,0.389,0.363,0.326,0.187,0.121,south,6.9,No
2017/06/06,19:40,0.379,0.227,0.392,0.359,0.329,0.187,0.121,south,5.9,No
2017/06/06,19:50,0.375,0.227,0.389,0.361,0.326,0.187,0.120,south-southwest,5.8,No
2017/06/06,20:00,0.377,0.227,0.392,0.359,0.328,0.187,0.121,south-southwest,6.5,No
2017/06/06,20:10,0.375,0.227,0.389,0.361,0.326,0.187,0.121,south,6.7,No
2017/06/06,20:20,0.378,0.228,0.392,0.361,0.327,0.187,0.121,south,7.3,No
2017/06/06,20:30,0.375,0.227,0.389,0.361,0.325,0.187,0.120,south,7.4,No
2017/06/06,20:40,0.377,0.228,0.392,0.360,0.328,0.188,0.120,south,6.2,No
2017/06/06,20:50,0.374,0.227,0.388,0.360,0.327,0.188,0.121,south,7.7,No
2017/06/06,21:00,0.378,0.227,0.391,0.361,0.327,0.188,0.121,south,6.8,No
2017/06/06,21:10,0.376,0.228,0.390,0.360,0.327,0.187,0.121,south,6.2,No
2017/06/06,21:20,0.376,0.227,0.390,0.361,0.325,0.188,0.120,south,6.7,No
2017/06/06,21:30,0.377,0.228,0.392,0.361,0.328,0.188,0.120,south-southwest,7.0,No
2017/06/06,21:40,0.376,0.227,0.390,0.362,0.327,0.187,0.120,south-southwest,6.3,No
2017/06/06,21:50,0.377,0.229,0.391,0.359,0.329,0.187,0.121,south-southwest,6.4,No
2017/06/06,22:00,0.375,0.228,0.389,0.362,0.325,0.187,0.121,south-southwest,6.5,No
2017/06/06,22:10,0.379,0.227,0.391,0.359,0.328,0.188,0.121,south-southwest,7.0,No
2017/06/06,22:20,0.376,0.228,0.390,0.361,0.327,0.189,0.121,south-southwest,6.1,No
2017/06/06,22:30,0.378,0.228,0.391,0.360,0.326,0.188,0.121,south-southwest,6.2,No
2017/06/06,22:40,0.376,0.228,0.390,0.360,0.326,0.187,0.120,south-southwest,6.1,No
2017/06/06,22:50,0.378,0.228,0.390,0.361,0.325,0.188,0.120,south-southwest,4.4,No
2017/06/06,23:00,0.376,0.227,0.389,0.360,0.328,0.188,0.121,south-southwest,3.6,No
2017/06/06,23:10,0.377,0.227,0.388,0.361,0.325,0.187,0.120,south-southwest,4.3,No
2017/06/06,23:20,0.376,0.227,0.393,0.359,0.327,0.188,0.120,south-southwest,5.5,No
2017/06/06,23:30,0.376,0.228,0.389,0.363,0.326,0.188,0.121,south-southwest,6.3,No
2017/06/06,23:40,0.377,0.228,0.395,0.359,0.329,0.188,0.121,south-southwest,5.7,No
2017/06/06,23:50,0.377,0.227,0.389,0.361,0.326,0.188,0.120,south-southwest,6.1,No
